Wind_Speed
12 12 13 16 18 17 15 15 15 15 15 15 15 15 15 15 15 16 17 18 20 22 24 25 27 28 28 28 29 31 32 33 33 32 31 31 30 29 27 25 23 22 24 25 25 26 27 27 27 27 26 25 25 26 28 28 27 26 26 25 24 24 23 23 23 24 25 25 26 27 27 27 27 27 26 26 25 25 26 26 27 27 27 28 29 29
15 15 17 19 20 19 17 17 16 16 16 16 16 16 16 16 17 18 19 20 21 21 22 22 23 23 24 24 25 28 31 32 33 33 32 31 30 28 26 24 22 22 22 22 22 23 24 25 26 26 25 24 25 27 29 29 29 28 27 26 26 25 24 23 23 23 24 24 25 25 26 26 26 26 26 26 25 26 26 27 27 27 28 28 29 29
18 19 22 23 22 21 20 19 19 19 19 19 18 18 18 19 19 21 22 23 23 22 22 22 22 22 22 21 21 25 28 30 32 32 32 31 29 27 26 25 25 24 22 20 20 21 22 23 23 23 23 24 25 27 30 30 30 29 28 27 27 25 23 22 22 23 23 23 23 24 24 25 25 25 25 25 25 26 26 27 28 28 28 28 28 28
19 22 24 24 24 24 23 23 22 21 21 21 21 21 21 21 22 24 25 26 25 25 24 24 24 24 24 22 21 24 27 30 31 31 32 32 30 27 27 27 26 26 24 22 21 22 22 22 22 22 23 23 24 26 30 31 31 30 28 27 27 25 23 21 21 21 21 21 22 23 23 23 24 24 24 25 25 26 26 26 27 28 27 28 28 28
20 23 23 24 25 24 24 24 23 23 23 23 23 23 23 24 26 27 28 28 28 27 27 26 26 25 25 25 24 24 26 29 30 31 32 33 31 30 30 28 26 26 25 24 23 23 23 22 22 22 22 22 23 27 30 31 31 30 28 28 27 25 22 21 21 21 20 20 20 21 21 22 23 24 24 25 25 25 25 26 26 27 27 27 27 27
21 22 22 23 24 23 23 22 22 23 23 23 23 23 24 26 28 29 29 30 29 29 29 28 27 27 26 26 27 26 26 28 30 31 33 33 33 32 30 28 25 24 25 25 24 23 23 23 23 22 22 22 24 28 31 31 31 30 28 28 27 25 24 22 21 21 21 20 19 19 20 21 22 23 24 25 25 25 25 25 26 26 27 27 27 26
22 24 24 24 24 23 22 21 21 22 21 22 22 23 24 26 27 29 29 29 29 30 30 28 28 28 26 26 28 28 28 29 31 32 33 34 34 32 30 28 25 24 25 25 25 23 23 23 24 23 23 24 26 30 32 31 30 29 28 28 27 26 24 23 22 22 21 20 19 19 19 20 22 23 23 24 25 25 25 25 26 26 26 26 26 25
21 23 24 24 24 23 22 22 22 22 21 21 22 23 24 25 26 28 28 29 29 29 29 28 28 29 27 26 28 29 30 31 32 33 33 33 33 32 30 29 27 26 25 25 25 25 24 25 26 25 26 27 27 30 33 31 29 28 27 27 27 25 24 23 23 22 21 19 19 19 20 21 21 22 22 23 23 24 24 25 26 26 26 26 26 25
18 21 22 22 21 21 22 22 22 22 22 22 23 23 24 25 26 27 28 29 29 30 30 29 29 30 29 26 27 30 31 32 33 33 33 33 33 33 32 31 29 27 26 26 26 26 26 26 27 29 30 29 28 30 31 30 28 27 27 26 25 24 23 22 22 21 20 19 19 19 20 21 21 21 21 21 22 23 23 24 25 26 26 26 26 25
18 19 19 18 18 18 20 21 21 22 22 22 23 24 24 25 26 27 28 29 30 30 29 28 29 31 31 28 27 30 31 33 34 33 33 35 35 35 35 33 31 29 27 25 25 26 29 29 30 30 30 28 27 28 28 27 27 27 26 25 24 22 21 21 21 20 19 18 18 19 20 21 21 21 21 21 22 22 22 23 24 25 26 25 25 24
18 18 19 18 17 18 19 19 20 21 22 23 24 24 25 26 26 27 28 28 30 30 27 27 29 31 32 29 27 28 30 31 32 33 34 35 36 37 36 35 33 30 28 27 27 29 29 27 25 24 22 21 22 25 25 26 27 28 27 26 24 22 21 20 20 19 18 17 18 19 20 21 21 21 21 21 21 22 22 22 23 24 25 25 24 23
18 19 19 20 19 19 19 19 20 21 21 22 23 24 25 25 25 26 26 26 27 27 25 25 27 29 30 28 26 27 27 28 30 32 33 35 36 36 35 35 33 31 29 27 27 26 24 20 17 16 16 17 20 23 25 26 27 28 27 27 25 23 21 20 20 19 18 17 17 18 18 19 20 19 19 20 21 21 21 22 22 23 23 24 24 23
17 17 18 19 19 19 19 19 19 20 21 22 23 23 24 24 24 24 24 24 23 23 23 23 24 25 25 24 24 23 22 23 25 28 30 33 35 34 34 33 31 30 25 22 22 21 17 15 14 14 15 17 20 23 25 26 27 27 28 28 27 25 23 21 20 20 19 19 18 18 18 18 18 18 18 18 19 19 20 20 21 21 22 23 23 23
12 14 15 16 17 18 18 17 17 18 19 21 21 22 22 23 23 23 22 22 22 21 22 22 23 23 22 21 21 20 19 19 21 23 25 27 28 29 29 28 26 23 19 16 17 16 14 14 14 15 16 18 20 23 25 26 27 28 28 28 28 27 25 23 22 21 21 21 20 20 20 20 19 19 18 18 18 18 18 19 19 20 21 22 22 23
9 11 13 14 14 15 16 17 17 18 19 20 21 21 22 22 22 23 23 23 22 22 23 23 23 24 22 21 21 20 18 17 18 20 21 22 23 23 23 21 19 18 15 13 14 13 13 15 16 17 18 20 22 24 26 27 28 28 29 29 28 27 25 24 24 24 23 23 23 22 22 21 21 20 20 19 19 18 18 18 18 19 20 21 22 22
11 10 12 14 14 14 14 16 18 19 19 20 22 22 22 22 23 24 24 24 24 25 25 25 25 24 23 22 21 19 18 17 17 18 19 19 20 20 20 19 18 16 14 12 13 14 15 17 19 19 20 22 24 26 27 28 28 29 31 30 28 28 27 26 25 25 25 25 24 24 23 22 21 21 20 20 20 20 20 19 19 19 20 20 21 22
15 13 13 14 15 15 15 16 18 19 19 20 22 22 22 22 23 24 24 25 26 27 28 27 26 25 24 23 21 19 19 18 18 19 19 20 20 20 21 21 20 17 14 14 17 19 21 22 23 22 23 24 25 26 27 28 28 30 32 32 30 29 29 27 26 26 25 25 25 24 22 21 21 20 20 19 19 20 20 20 20 20 20 21 22 22
19 18 17 16 16 17 17 17 19 20 21 21 22 22 22 23 24 24 25 27 28 29 29 28 27 26 25 24 22 20 19 18 18 19 20 20 20 20 21 22 22 20 17 17 19 23 25 26 26 25 25 25 26 28 28 29 28 27 28 29 27 27 27 27 26 25 24 24 24 24 22 20 20 19 19 19 19 19 20 20 21 21 21 22 22 23
23 22 21 20 19 19 19 19 20 21 23 23 23 24 24 25 26 27 28 29 30 31 31 29 28 27 26 25 23 21 20 20 20 20 21 21 21 21 21 22 22 21 19 18 20 23 25 27 27 27 27 27 28 30 29 28 26 24 24 25 23 23 26 27 27 26 25 24 23 23 21 20 20 20 20 19 19 19 20 21 21 22 22 22 23 24
25 26 25 24 23 23 23 23 22 23 24 25 26 27 28 28 29 30 30 30 31 32 32 31 30 28 26 25 25 24 23 22 22 22 22 23 24 23 23 22 22 21 20 19 19 22 24 25 27 28 29 29 31 32 30 26 25 24 24 25 23 23 24 25 26 26 26 25 24 22 22 22 21 21 20 20 20 20 21 21 22 22 22 22 23 24
28 29 29 28 27 26 26 27 26 26 26 27 28 29 30 31 31 31 32 32 32 32 33 33 32 29 27 27 27 27 26 25 24 24 24 24 24 24 23 22 22 23 23 22 22 23 24 26 27 28 30 31 32 32 30 27 25 25 26 27 27 26 25 24 24 25 26 26 26 25 24 24 24 23 22 21 21 22 23 23 22 23 22 22 22 22
31 31 31 31 30 29 30 30 30 29 29 29 30 31 32 32 33 33 34 34 33 33 34 35 35 33 30 29 28 29 29 29 29 28 28 27 26 26 25 25 25 25 26 26 27 27 28 28 28 30 31 33 33 32 31 29 28 28 29 30 30 30 29 28 28 27 27 28 28 28 27 27 27 26 25 24 24 24 25 24 24 23 22 22 21 21
34 34 34 34 33 32 33 33 33 33 32 32 33 33 34 34 35 35 35 35 35 35 37 37 38 38 34 31 30 31 32 33 34 34 33 32 31 30 30 30 30 30 31 32 32 31 30 30 31 31 32 33 33 32 31 31 31 32 33 33 33 32 32 32 31 31 30 29 29 29 28 29 29 29 28 27 26 25 26 27 26 25 24 23 23 22
35 36 37 37 36 36 35 35 35 36 35 35 35 35 36 36 37 38 38 38 38 39 39 40 42 43 39 35 34 34 34 34 36 37 37 37 37 36 36 35 35 35 36 37 37 35 33 33 33 34 34 34 34 33 32 32 33 34 34 35 35 34 34 34 33 33 32 32 33 32 31 30 31 33 32 31 30 28 28 28 28 27 26 26 25 25
36 37 38 38 39 39 38 38 38 38 38 38 37 37 38 38 38 39 40 40 42 42 42 42 44 45 43 41 40 39 38 37 38 39 39 40 41 42 41 41 40 40 41 41 41 39 37 36 35 36 37 37 36 35 34 33 34 34 34 35 35 35 36 36 35 35 35 35 35 35 34 33 34 35 35 34 33 32 31 30 30 30 29 29 30 29
37 38 39 39 40 40 40 39 39 39 39 39 39 38 38 39 40 40 41 42 44 44 44 45 46 46 46 47 46 44 43 43 44 44 44 45 46 46 46 46 45 44 42 42 42 42 41 39 38 37 37 38 38 38 37 36 35 35 35 35 35 36 36 36 36 36 37 37 37 37 36 35 35 35 36 36 34 32 32 32 32 32 32 31 31 32
38 39 39 39 40 41 40 40 39 38 38 38 38 38 39 39 39 40 41 42 43 44 45 46 46 46 47 49 49 49 48 48 49 49 49 50 50 50 50 49 48 46 44 43 42 42 42 41 39 38 37 37 37 38 39 39 39 38 37 37 37 38 37 37 38 38 38 38 39 38 37 36 36 35 36 37 36 35 34 34 33 34 33 33 33 34
39 39 39 39 40 40 41 41 40 39 38 38 38 39 39 39 40 41 41 41 42 43 45 45 44 45 46 47 48 49 50 50 50 50 51 51 51 51 51 49 47 46 44 43 41 40 40 40 39 39 39 39 39 40 40 40 41 41 40 41 41 42 42 42 42 42 42 41 41 41 40 39 39 38 38 38 38 38 38 36 36 36 36 35 35 36
39 39 39 39 39 40 40 41 41 40 39 39 39 39 39 40 41 41 41 41 42 43 43 44 43 43 44 45 46 47 48 49 49 49 49 49 49 49 48 46 45 43 41 40 39 39 39 40 41 41 42 42 43 43 43 43 44 44 44 45 46 46 47 47 46 46 46 46 45 45 44 43 42 41 41 40 40 40 41 40 39 39 39 39 38 37
39 39 39 39 39 40 40 41 41 42 42 42 41 41 41 41 41 41 41 41 41 42 42 43 44 43 43 44 44 44 46 48 49 49 48 48 48 47 47 47 46 45 43 43 44 44 44 45 46 46 46 46 45 45 46 46 46 46 46 47 48 48 49 49 49 49 49 48 48 48 47 46 45 44 44 43 43 43 43 43 43 43 43 43 42 42
39 40 40 40 41 41 41 42 43 44 44 45 45 45 44 43 42 41 40 40 41 41 41 42 44 44 43 42 43 44 46 48 49 49 49 49 49 48 48 49 49 49 49 50 51 51 51 52 53 52 52 52 51 50 49 48 48 47 47 48 48 49 49 50 51 51 50 50 50 49 49 48 47 46 46 46 46 45 45 45 46 47 47 47 46 46
41 42 42 43 44 43 42 43 45 46 47 48 48 47 45 43 43 42 41 41 42 42 42 43 45 44 41 41 43 45 47 48 48 49 50 50 50 50 50 50 50 50 51 52 53 54 55 55 56 56 56 56 56 55 54 53 52 51 51 51 51 50 51 52 52 53 53 53 53 52 52 52 51 50 49 50 50 49 49 49 49 50 50 51 51 50
42 43 44 45 46 45 44 45 46 47 49 49 47 45 44 44 44 44 43 42 41 41 43 45 45 43 42 43 44 45 45 46 47 48 49 49 50 50 50 50 50 51 51 52 52 53 54 54 55 55 55 56 56 57 57 57 57 56 55 55 55 54 54 54 54 55 55 55 55 55 55 55 54 54 53 53 54 54 54 53 53 53 53 54 54 55
42 42 43 44 45 45 45 46 47 49 49 48 45 45 45 45 45 44 44 42 42 42 44 44 44 43 43 43 44 44 44 45 46 47 47 48 48 49 49 50 50 50 51 52 52 52 53 53 53 53 53 54 54 55 56 57 57 57 57 57 57 57 57 57 56 56 56 56 56 56 57 57 56 56 56 56 56 56 56 56 55 55 56 56 56 57
41 42 42 43 44 45 45 46 48 49 48 46 45 46 45 44 43 43 43 42 42 43 43 43 43 43 43 43 44 45 45 45 46 46 46 47 47 48 49 49 49 50 50 51 51 52 52 51 51 51 52 52 53 53 54 55 55 56 56 56 57 57 57 57 57 56 57 57 56 56 57 57 57 56 56 57 57 56 56 56 56 55 56 56 57 57
43 43 43 43 44 45 45 46 47 48 47 46 46 45 44 43 42 42 42 42 42 42 42 42 43 43 43 44 44 44 44 45 46 46 46 47 47 48 48 48 48 49 49 50 50 50 51 51 50 51 51 51 52 52 53 53 53 54 54 55 55 55 56 56 55 55 55 55 56 56 56 56 56 56 56 56 56 56 56 56 56 56 56 56 56 56
44 44 44 44 44 44 45 45 46 47 46 46 45 44 43 43 42 42 42 42 42 42 42 42 42 43 43 43 43 43 43 43 44 45 46 46 47 47 47 47 48 48 48 49 49 50 50 50 50 50 50 51 51 51 52 52 52 52 52 53 53 54 54 54 55 55 55 55 55 55 56 56 56 56 56 56 56 56 57 57 57 57 57 57 58 58
44 43 43 43 43 43 43 43 44 44 44 43 43 43 42 42 41 41 42 43 43 42 42 42 42 42 43 43 43 42 41 41 43 44 45 45 46 46 47 47 47 47 48 48 49 49 50 50 51 51 51 51 51 51 51 51 51 51 51 51 52 52 53 53 54 55 55 54 54 55 55 56 56 56 57 57 57 57 57 58 58 58 58 58 59 59
43 43 42 42 42 42 41 42 42 42 42 41 41 41 41 40 41 41 42 43 43 42 42 42 42 42 42 41 41 41 41 41 42 43 44 44 45 45 46 46 47 47 47 48 49 49 50 50 51 51 51 51 51 52 52 52 52 51 51 51 51 51 52 53 54 55 55 54 55 55 56 56 56 56 57 57 57 57 57 57 57 57 58 58 58 59
41 42 42 42 42 42 42 41 41 40 40 40 40 40 39 40 40 40 42 43 42 41 41 41 41 41 41 40 40 40 41 41 42 42 42 42 43 44 45 45 46 47 47 48 49 50 50 50 51 51 51 51 52 52 52 52 52 51 51 51 51 51 52 53 54 54 54 55 55 55 56 56 56 56 56 56 56 56 56 56 56 56 56 56 57 57
39 40 41 41 42 42 42 41 41 39 39 39 39 39 39 39 40 40 41 42 41 41 42 41 41 40 39 38 38 39 39 39 40 40 40 40 41 42 43 43 44 45 46 48 49 50 50 50 51 51 51 51 51 51 51 51 51 51 51 51 51 51 52 53 53 53 53 54 55 55 56 56 56 56 55 56 56 56 56 56 56 56 55 55 56 56
38 38 39 39 40 40 41 41 40 39 39 38 38 39 39 40 40 40 40 41 41 41 42 42 41 40 39 39 38 38 38 40 41 42 42 42 42 43 44 45 45 46 47 48 49 49 49 49 49 50 50 50 50 49 49 49 49 49 49 49 49 50 50 50 51 51 52 53 54 55 56 56 56 56 56 56 57 57 57 57 57 57 57 57 57 58
36 36 36 36 37 38 38 39 39 39 39 39 39 40 40 40 41 41 41 41 41 41 42 42 42 41 41 42 41 42 43 44 44 45 45 45 45 46 47 47 48 48 48 47 47 47 47 47 47 48 48 48 48 49 49 49 48 48 47 47 48 49 49 49 50 50 50 51 52 53 54 54 55 55 56 56 57 58 58 59 59 59 60 60 60 60
36 35 35 34 34 35 36 37 38 39 39 40 41 42 42 41 41 41 41 42 42 43 43 43 43 43 44 44 44 45 46 46 46 47 47 47 47 48 49 49 49 50 50 49 49 50 50 50 49 49 49 50 50 51 52 51 49 48 48 48 49 49 49 50 51 51 50 51 52 53 53 54 55 55 56 57 58 58 59 60 60 60 61 61 61 60
35 35 35 34 34 35 35 36 37 38 40 41 43 43 43 43 43 43 43 43 44 44 45 45 45 45 45 46 45 46 46 47 47 48 48 48 48 49 50 51 51 51 52 52 53 54 54 54 53 52 53 54 55 56 55 54 52 50 51 51 52 52 52 53 53 53 53 54 55 56 56 57 57 57 58 58 58 58 58 57 57 57 58 57 56 55
35 36 36 36 36 36 36 36 37 39 40 42 43 43 44 44 44 45 45 46 46 46 47 47 47 47 48 49 49 49 49 50 50 50 50 50 50 50 51 51 52 53 54 54 55 56 56 56 55 55 56 56 58 59 58 57 56 56 56 56 56 56 56 56 56 56 56 57 57 57 56 56 55 53 53 53 53 51 49 48 48 47 46 46 45 44
37 37 37 38 39 39 39 38 38 39 40 41 42 43 44 45 46 46 47 48 48 49 49 49 49 50 50 51 52 52 52 53 53 53 53 53 53 53 53 53 53 54 55 56 56 57 58 58 58 58 58 58 59 60 60 59 59 59 59 58 58 57 57 56 56 55 54 54 53 51 48 46 43 42 42 42 40 37 35 34 35 34 33 33 34 34
38 38 39 40 41 41 40 39 39 40 41 42 43 44 45 46 47 48 49 49 50 50 50 51 51 52 52 53 53 54 54 54 55 56 56 56 56 56 56 55 55 56 56 56 56 57 57 57 57 57 56 57 57 58 57 56 56 56 56 55 54 52 51 50 48 46 45 43 42 40 37 34 32 32 32 30 28 27 27 28 29 28 28 29 30 29
39 40 41 41 41 41 40 41 42 42 42 43 44 45 46 46 47 47 48 49 50 51 51 51 52 53 53 53 53 54 54 54 55 56 57 57 56 56 56 56 55 56 56 55 55 54 54 53 53 52 52 51 51 51 50 48 47 46 46 45 42 40 38 36 34 34 34 34 33 33 30 28 26 26 26 25 24 25 27 28 28 28 28 28 28 28
41 41 43 43 43 42 41 42 44 45 44 44 44 44 46 47 48 48 49 49 49 50 51 52 52 52 52 52 52 53 54 54 54 55 55 54 54 53 53 53 53 53 52 51 51 50 49 48 47 46 45 44 43 41 38 34 33 34 34 31 29 27 27 26 26 27 28 28 28 27 26 25 26 26 25 25 26 27 28 29 28 27 27 26 25 25
42 43 44 45 45 44 43 44 45 46 46 45 43 42 42 44 47 49 49 49 49 48 49 50 50 50 49 49 50 51 53 53 51 51 50 50 48 48 47 47 47 46 45 45 44 42 40 39 38 37 35 33 31 28 24 21 23 25 24 21 21 22 21 20 19 19 21 21 21 21 22 23 24 26 26 26 27 27 27 26 24 23 22 22 21 21
Wind_Direction
248 247 248 248 247 245 239 233 230 227 225 225 226 227 227 229 234 238 239 241 242 242 243 246 248 250 251 248 247 249 251 254 258 260 262 261 261 260 261 262 264 262 258 258 256 254 254 255 257 259 261 264 264 264 264 264 264 264 265 264 262 260 258 256 255 254 253 253 254 255 255 256 256 257 258 258 258 257 257 258 259 259 260 260 261 262
255 252 250 250 253 254 251 246 242 238 234 233 233 235 237 238 240 243 245 246 247 247 249 250 251 252 253 250 245 244 248 250 253 257 257 256 256 257 260 260 258 255 254 254 251 251 252 254 257 259 261 263 263 264 265 266 266 266 266 268 268 267 266 265 263 261 258 257 257 257 256 256 255 256 256 257 257 257 257 258 259 260 260 261 262 262
258 255 253 252 253 255 254 253 251 248 246 244 243 242 243 244 245 245 246 248 249 249 251 253 254 253 252 249 242 240 244 247 250 254 256 256 256 257 258 258 255 251 248 246 244 249 253 257 261 263 263 263 264 266 266 266 267 267 268 269 270 270 269 268 268 266 265 263 262 260 259 257 256 255 256 257 258 257 257 258 259 260 261 261 262 262
256 254 255 256 256 256 256 255 254 253 252 252 251 250 249 250 250 250 250 250 250 250 250 250 252 253 254 251 245 243 244 248 251 254 257 259 259 257 256 256 254 251 247 244 245 251 257 262 265 266 267 267 268 271 270 269 269 269 269 270 271 272 271 270 269 268 267 265 263 261 259 258 257 256 257 258 258 258 258 258 259 261 262 262 263 263
256 255 256 258 258 258 258 258 257 256 255 254 254 254 254 254 253 253 254 255 255 254 252 251 250 251 253 254 251 247 246 249 252 254 256 259 259 258 256 255 254 252 248 246 248 254 261 266 268 270 272 273 276 277 274 272 273 272 272 273 274 274 273 271 270 268 265 263 261 259 259 259 259 259 259 259 260 259 258 257 258 260 261 262 263 263
260 259 258 258 259 259 259 260 260 259 258 256 255 254 254 254 255 256 256 258 259 259 258 256 254 250 249 251 252 250 249 250 252 254 256 257 258 258 257 257 256 253 248 246 248 255 263 267 269 272 276 280 283 282 277 275 276 278 279 279 278 277 276 273 271 268 265 263 261 260 261 262 262 262 262 262 262 261 260 259 258 259 260 261 262 262
260 261 260 259 260 260 260 261 261 260 259 258 256 254 252 253 255 257 258 260 261 262 262 261 259 254 248 247 250 252 252 253 253 254 256 258 260 260 260 259 258 253 247 245 246 252 261 267 270 273 279 283 284 281 279 278 279 280 281 281 279 278 276 274 272 270 268 267 266 265 264 264 264 265 264 265 265 264 263 263 262 261 261 261 261 261
260 261 261 260 261 261 260 260 259 259 259 258 257 255 254 254 255 257 259 260 261 261 262 262 261 259 253 247 249 252 253 255 256 258 259 261 262 263 262 261 260 257 253 251 252 254 260 270 273 275 279 281 279 277 277 279 279 279 279 278 277 276 275 273 272 271 271 270 269 267 266 265 266 266 266 266 266 266 266 266 265 265 264 263 262 261
259 261 263 264 264 263 260 258 258 258 258 257 256 256 257 257 257 258 259 259 260 260 261 262 261 261 258 250 248 250 251 253 257 260 262 263 264 265 266 265 263 261 259 259 260 259 263 272 276 275 276 276 274 272 274 277 276 275 274 273 273 274 273 272 271 271 272 270 269 268 267 267 267 267 267 266 266 267 267 267 267 267 266 265 263 262
262 262 264 265 265 264 262 261 260 259 258 257 257 257 257 258 258 259 260 261 262 261 263 265 265 264 262 255 250 250 250 252 255 258 261 263 264 265 267 268 268 268 268 268 267 268 271 274 274 272 271 270 267 267 270 272 271 270 269 269 269 270 271 271 272 272 272 271 270 269 268 268 268 267 267 267 266 266 268 268 268 268 267 265 264 263
264 265 266 265 262 260 261 261 260 259 258 258 258 258 258 259 260 262 264 266 267 268 268 270 269 267 266 262 256 253 252 253 256 257 258 260 262 264 266 270 272 273 275 276 276 274 273 272 268 266 266 266 264 265 266 266 265 267 268 267 267 267 268 269 270 271 271 270 270 269 269 269 268 267 267 267 266 266 266 267 268 268 268 266 264 262
263 264 266 266 262 259 258 258 259 260 261 262 262 263 264 265 267 268 270 271 273 275 275 272 270 270 270 268 263 258 256 256 257 258 257 258 259 261 264 268 271 273 275 276 272 269 269 268 266 267 268 266 265 264 262 261 262 266 268 268 268 266 266 267 268 269 269 268 268 268 269 269 269 269 268 267 267 266 267 267 268 269 269 268 266 263
268 267 266 265 264 262 260 258 259 260 262 264 265 267 269 270 271 272 273 274 275 276 275 273 272 272 273 273 270 264 259 256 256 257 257 257 259 262 264 267 271 273 273 269 264 265 269 270 269 269 265 262 262 261 261 262 264 266 268 269 269 268 267 267 267 268 269 269 269 270 270 270 271 271 270 269 269 267 267 267 269 270 272 272 270 267
273 271 268 265 264 263 262 260 259 260 260 262 264 266 267 268 270 271 271 271 272 272 271 271 271 272 274 275 274 272 266 259 256 257 258 259 261 263 265 268 272 273 270 264 264 269 272 272 270 269 264 259 260 261 263 265 267 267 268 269 268 269 269 268 268 270 272 273 273 272 272 273 274 274 274 274 273 272 270 269 270 271 273 274 273 272
272 272 273 271 265 262 262 260 258 257 258 260 262 264 266 268 271 272 271 272 272 272 270 270 272 273 274 275 275 275 273 267 260 258 259 262 264 265 266 267 268 269 268 268 271 270 267 267 267 266 265 261 261 263 264 266 267 267 267 266 266 267 268 270 272 272 273 275 275 275 275 275 276 277 277 277 277 277 276 274 273 273 275 275 274 273
272 270 272 274 271 266 261 259 260 259 260 262 263 265 268 271 271 272 273 273 273 273 271 271 272 273 274 274 274 275 274 271 264 259 258 260 262 265 267 267 265 262 258 255 254 252 254 258 260 261 262 263 263 262 263 265 266 266 263 261 263 265 266 268 270 271 272 273 274 274 274 274 276 278 279 279 279 279 279 277 276 275 276 276 275 274
279 274 269 269 271 269 263 259 260 260 260 261 263 266 269 270 270 271 273 274 273 273 271 271 272 273 273 273 274 275 274 272 266 261 258 257 259 262 265 267 266 260 250 240 236 237 238 241 245 250 255 258 259 259 260 262 264 266 263 260 260 263 266 267 269 269 268 269 269 269 268 270 274 276 278 280 281 281 280 279 278 277 276 276 276 275
284 281 275 270 267 266 264 261 259 260 260 260 262 263 263 265 267 269 271 273 274 274 272 271 270 270 270 271 273 273 271 268 263 259 257 256 256 258 259 262 263 261 255 245 241 240 239 238 240 243 245 249 252 254 256 259 262 264 261 258 260 262 264 266 268 268 267 266 266 265 265 268 272 275 277 279 281 281 280 279 277 275 274 274 275 275
284 283 280 276 272 268 265 261 258 258 260 260 260 260 259 260 263 266 269 271 274 275 274 272 271 269 268 269 270 269 266 264 261 258 257 257 256 256 256 256 257 258 256 251 247 248 249 250 251 249 245 244 247 250 251 253 255 255 254 254 257 261 262 263 265 266 265 263 262 262 264 267 269 271 273 275 278 278 278 277 275 273 272 272 272 273
284 284 283 281 278 274 270 265 260 258 258 258 257 258 258 258 260 263 265 267 270 271 272 271 270 269 267 267 267 266 265 265 263 261 260 260 258 256 254 252 249 247 246 248 249 249 251 254 257 258 255 253 254 254 253 253 253 252 250 250 253 257 259 259 260 261 260 258 257 258 260 262 263 264 267 271 274 276 275 274 273 271 270 269 269 270
283 284 283 282 280 277 274 271 267 264 261 259 258 257 257 257 258 260 262 263 264 266 267 268 268 268 266 265 266 267 267 266 263 260 260 260 260 257 254 250 246 242 241 245 252 254 254 254 255 258 259 260 260 259 257 256 256 255 253 252 253 253 253 252 252 255 257 256 255 255 257 260 261 260 262 266 269 271 271 271 271 270 269 268 267 267
281 282 282 281 279 276 274 273 271 268 266 264 263 261 260 260 259 259 260 261 262 264 264 265 266 266 264 263 265 266 267 267 264 261 260 260 259 258 257 254 253 250 249 252 258 262 263 262 258 257 258 260 261 262 261 259 258 257 256 257 257 257 258 258 253 251 254 256 257 258 259 261 261 262 264 266 267 268 268 268 267 266 265 264 264 266
281 282 282 281 278 274 273 273 271 269 268 267 266 266 265 265 265 264 263 262 262 262 262 263 264 264 263 262 263 264 266 267 266 263 261 259 258 257 257 258 258 259 258 259 262 264 265 265 264 262 261 261 261 261 260 259 258 257 257 259 261 261 264 264 259 253 253 255 256 258 259 260 261 261 264 264 263 263 264 264 265 264 263 263 263 264
279 280 281 281 279 277 274 272 270 269 269 268 267 267 266 266 267 266 266 265 264 262 262 263 264 264 263 262 261 261 264 266 266 263 261 259 258 257 258 259 261 263 264 264 264 263 262 262 264 263 262 261 260 258 256 256 256 256 257 258 260 261 262 264 264 261 259 259 258 257 258 259 259 260 262 262 262 263 262 261 262 262 263 263 263 263
278 278 279 279 278 277 275 274 273 271 270 269 268 266 264 264 263 264 264 265 264 264 263 263 264 266 267 265 263 261 261 262 262 261 260 260 261 261 261 262 264 267 267 266 265 264 261 260 261 261 261 261 260 258 255 253 253 254 255 257 258 259 260 263 264 264 263 264 263 261 259 258 257 259 262 263 265 265 261 257 256 258 259 262 263 264
277 277 277 277 276 276 275 274 273 272 271 271 269 267 265 263 262 261 262 262 263 264 264 263 263 265 267 267 267 265 263 262 262 261 261 261 263 265 267 268 270 271 270 267 266 264 262 261 260 259 258 258 259 258 256 253 251 250 251 253 255 256 258 260 261 262 263 263 262 261 261 260 257 257 261 264 265 263 260 257 255 256 257 260 262 263
276 276 276 276 276 276 276 274 272 271 270 270 270 269 267 265 264 263 262 262 262 264 264 263 263 264 266 266 267 268 267 266 265 265 264 265 266 268 270 271 273 273 271 269 267 265 262 261 260 259 257 256 257 257 256 255 254 252 251 251 252 253 254 256 257 258 260 260 260 260 261 262 260 258 259 261 262 262 260 259 257 258 259 259 260 264
275 275 274 274 273 274 274 273 272 271 269 268 267 267 267 267 267 266 266 266 265 265 266 265 265 265 266 266 267 268 267 267 267 267 267 268 269 270 270 271 271 270 267 265 264 262 261 260 259 258 257 257 257 255 255 256 256 256 255 255 255 255 255 256 257 257 258 258 258 258 258 260 260 259 258 258 259 261 262 261 261 261 262 261 261 264
276 275 274 272 271 270 270 270 270 270 269 268 267 266 266 266 267 267 268 268 268 268 269 270 269 268 268 267 267 268 268 268 268 268 268 268 268 268 268 267 267 265 261 259 258 260 260 259 258 259 260 260 259 257 255 255 255 256 257 257 258 259 259 259 259 259 259 258 258 257 257 257 257 257 257 257 257 259 261 262 262 262 262 263 265 266
277 275 273 272 270 269 268 268 269 269 269 269 269 268 267 267 267 268 268 268 268 269 270 270 269 268 267 268 268 268 269 269 269 268 268 267 266 266 265 264 263 262 259 257 258 259 259 260 261 262 263 262 260 258 257 256 255 255 256 256 257 258 259 260 260 260 260 259 259 258 258 257 256 255 255 255 256 258 259 260 261 262 262 264 267 268
276 275 274 272 270 269 268 269 269 270 270 271 271 270 270 270 271 270 270 269 267 266 265 265 265 264 264 266 266 266 266 266 267 268 268 268 267 265 264 263 262 261 260 259 260 260 260 260 262 263 263 263 262 261 260 259 258 257 256 257 257 257 258 259 259 260 260 259 259 259 258 258 257 256 254 254 255 256 258 259 260 262 263 264 265 265
275 274 273 272 271 270 270 270 270 271 271 271 271 272 273 274 273 271 269 267 266 265 264 263 263 263 263 263 263 262 263 264 265 267 268 269 268 268 267 266 264 263 262 261 261 260 260 260 261 261 261 262 262 262 262 261 260 260 259 259 259 259 259 259 259 259 260 260 260 260 260 259 258 257 256 255 255 256 258 260 260 261 262 264 264 265
273 273 272 272 272 273 272 272 272 271 271 271 273 275 275 274 272 270 269 268 267 266 265 264 264 264 263 262 263 264 265 266 266 266 267 267 268 268 268 267 267 266 265 264 263 262 262 262 262 262 262 261 262 262 262 262 262 262 262 262 262 262 262 261 260 260 261 261 262 262 262 261 260 259 258 257 257 257 258 259 260 260 261 262 263 264
271 271 271 272 273 273 273 272 271 271 271 274 275 274 273 272 272 272 271 270 268 267 266 266 267 266 264 264 264 265 265 266 266 267 267 267 266 266 266 267 267 266 266 266 265 264 264 264 264 264 264 264 263 262 262 262 262 262 263 263 264 264 264 264 263 262 262 263 263 263 262 262 262 261 261 260 259 259 259 260 260 260 260 261 261 262
272 272 271 271 272 272 272 271 271 271 273 274 273 272 272 272 272 272 272 271 270 269 269 269 268 266 265 265 264 264 265 265 265 265 265 265 265 266 266 266 266 266 267 267 267 266 266 266 265 265 265 264 264 263 263 262 262 262 263 263 264 265 265 265 264 264 264 263 263 263 263 262 262 262 262 262 262 262 261 261 261 261 261 261 261 262
274 273 273 272 271 271 271 270 271 272 273 273 272 273 273 273 272 271 271 270 270 270 270 269 268 268 267 266 265 265 264 265 265 265 264 264 264 265 265 266 266 266 266 266 267 267 267 266 266 265 265 264 264 264 263 263 263 263 263 263 264 264 264 265 265 264 264 263 263 263 262 262 262 262 262 262 263 263 263 263 263 263 263 264 264 264
275 274 273 272 272 271 271 270 271 272 272 272 273 273 273 273 273 272 272 271 271 270 270 269 269 268 268 267 266 265 265 264 264 264 264 264 264 264 265 265 264 264 264 264 264 265 265 265 265 264 264 264 264 263 263 263 263 263 263 263 263 263 264 264 264 264 264 263 263 263 262 262 262 262 262 262 263 263 264 264 264 264 264 264 265 265
275 274 273 272 271 271 271 270 271 271 271 271 271 272 272 273 273 273 273 273 272 272 271 270 269 268 268 267 267 266 265 264 263 262 263 263 264 264 264 264 265 265 264 264 264 264 264 264 264 264 263 263 263 263 263 263 263 263 263 263 263 263 263 264 264 264 263 263 263 263 263 263 263 263 263 263 263 263 263 263 264 264 264 264 264 264
275 274 274 274 273 272 272 271 271 271 271 271 270 270 271 272 272 272 272 272 272 272 272 271 269 268 267 267 266 266 264 263 261 262 262 262 262 263 263 264 264 264 265 265 265 265 265 265 265 265 265 264 264 264 264 264 264 263 263 263 263 263 264 264 264 264 265 265 264 264 264 263 263 263 263 264 264 263 263 263 262 263 263 264 264 264
275 276 276 276 275 275 274 273 273 272 272 271 271 272 272 272 273 272 271 271 272 272 271 271 270 269 268 267 267 266 264 263 261 261 261 261 262 262 262 263 263 264 264 265 265 265 265 266 266 267 267 267 267 266 266 266 265 264 264 263 263 263 263 263 264 265 265 265 265 265 265 265 264 264 264 264 264 264 264 264 263 263 262 262 262 263
274 275 275 275 275 275 275 275 274 274 274 274 274 274 274 273 272 271 271 272 272 272 271 271 271 270 269 268 267 265 263 261 260 260 260 261 262 262 263 263 263 264 265 265 265 265 265 266 267 268 268 269 269 268 268 268 267 266 264 264 263 263 262 262 263 263 264 264 264 264 264 264 264 264 264 264 264 264 264 264 264 264 264 264 263 263
272 272 272 273 273 274 275 276 276 276 276 276 275 275 274 273 271 271 271 272 272 271 271 270 269 268 267 266 264 261 260 261 262 263 263 264 264 264 264 265 265 266 267 266 266 266 267 267 268 269 269 269 269 269 269 268 268 267 266 265 264 264 263 262 262 263 263 263 263 263 263 263 263 263 263 262 262 262 262 262 262 263 264 264 265 265
272 271 270 270 271 272 274 276 277 277 277 276 275 274 273 273 272 272 272 272 271 270 269 269 268 267 266 265 264 262 262 263 264 266 266 266 266 266 266 266 267 268 268 267 267 267 268 269 270 270 270 270 270 269 269 269 269 268 267 267 267 266 266 265 265 265 265 264 264 263 262 262 262 262 261 261 260 260 260 260 260 260 261 262 263 264
273 271 270 270 270 271 272 273 275 276 276 275 275 274 274 274 274 273 273 273 272 271 270 269 269 268 267 267 266 265 265 265 265 266 266 266 266 267 266 266 267 267 267 267 267 268 270 271 271 271 271 271 271 271 271 271 270 269 269 269 269 269 269 269 269 268 268 268 267 266 265 264 264 263 263 262 261 260 259 259 259 259 260 260 261 262
275 274 273 272 271 270 270 271 271 272 272 273 273 274 274 275 275 274 274 273 272 272 271 272 272 272 271 270 269 267 266 266 266 266 266 265 265 265 266 266 266 266 266 266 267 267 268 269 270 270 270 270 271 271 272 272 272 272 271 271 271 271 271 271 271 270 270 270 270 270 269 268 267 266 265 264 262 261 261 260 260 259 259 260 261 262
277 276 275 275 274 272 270 269 269 269 270 271 272 273 274 274 274 274 273 272 272 272 272 272 272 272 273 272 272 271 270 269 269 268 267 267 266 265 265 265 265 266 266 266 266 266 267 268 268 269 269 270 270 271 271 272 273 273 273 273 273 273 272 271 271 271 271 271 270 270 269 268 267 266 265 264 263 263 262 261 260 259 260 261 261 261
277 277 277 276 275 274 273 272 272 271 271 272 273 273 273 273 272 272 272 272 272 272 272 271 271 270 270 270 270 270 271 271 271 271 271 270 269 268 267 267 266 266 266 266 267 267 268 268 269 269 270 270 270 271 271 272 272 273 273 273 273 273 272 271 271 271 270 269 268 267 266 265 264 263 262 262 261 259 255 254 253 254 254 254 254 254
278 278 277 276 276 277 277 277 276 275 275 275 274 273 272 272 272 272 272 272 271 271 271 271 271 270 270 269 269 269 270 270 270 271 271 271 271 271 271 271 270 270 270 269 269 269 269 269 270 270 270 271 271 271 272 272 272 272 272 272 272 272 271 271 270 268 266 265 263 262 261 260 258 256 254 252 247 242 240 241 242 242 242 243 245 248
279 279 278 278 278 279 280 280 278 277 276 276 276 275 274 273 272 272 272 272 272 272 271 271 270 270 270 270 269 269 269 269 269 269 269 269 270 270 271 271 271 272 272 272 272 272 272 272 272 272 273 273 272 272 272 272 271 270 269 270 270 270 268 266 264 261 259 257 257 256 255 251 246 243 241 239 235 234 235 236 236 236 237 239 242 245
281 281 281 280 280 280 280 280 279 277 276 276 277 276 276 275 274 273 272 271 271 271 271 270 270 270 270 270 270 269 269 268 268 268 269 270 270 270 270 270 270 271 271 271 272 272 273 273 272 273 272 271 271 270 270 268 267 267 267 266 265 261 258 257 257 256 255 253 252 250 247 242 237 236 236 235 234 234 234 233 233 234 236 240 244 248
283 283 283 283 282 281 281 280 280 279 278 277 278 277 277 276 275 274 273 272 270 269 269 268 268 268 268 268 268 268 269 269 270 270 271 271 271 271 270 270 269 269 269 269 269 270 269 269 268 268 266 264 264 264 262 261 262 262 261 257 253 251 253 258 259 253 246 242 239 235 231 228 227 228 230 231 232 233 234 234 235 235 237 242 247 250
Height
5739 5739 5739 5738 5738 5739 5741 5741 5742 5742 5743 5743 5744 5745 5746 5746 5747 5748 5749 5750 5750 5751 5751 5752 5752 5753 5754 5756 5758 5759 5760 5760 5761 5762 5763 5763 5763 5764 5765 5766 5766 5766 5766 5766 5767 5767 5767 5768 5768 5768 5768 5768 5767 5767 5766 5766 5766 5767 5768 5769 5770 5771 5772 5773 5773 5774 5774 5774 5775 5775 5775 5775 5776 5776 5776 5777 5778 5778 5778 5778 5778 5778 5778 5778 5778 5778
5737 5738 5737 5736 5737 5738 5739 5740 5741 5741 5742 5742 5743 5744 5745 5745 5746 5746 5747 5747 5748 5749 5749 5750 5750 5751 5752 5753 5755 5756 5757 5758 5758 5759 5759 5760 5761 5762 5763 5764 5764 5764 5764 5764 5765 5765 5765 5765 5765 5765 5766 5765 5764 5763 5762 5762 5763 5764 5765 5766 5767 5768 5769 5769 5770 5770 5771 5771 5771 5771 5772 5772 5772 5773 5773 5774 5774 5774 5774 5775 5775 5775 5775 5775 5775 5776
5735 5735 5734 5734 5735 5736 5738 5739 5739 5740 5741 5741 5742 5742 5743 5744 5744 5744 5744 5745 5745 5747 5747 5748 5748 5749 5749 5751 5753 5754 5754 5755 5755 5756 5756 5757 5759 5760 5761 5761 5761 5762 5762 5763 5763 5763 5763 5763 5763 5763 5763 5763 5762 5760 5759 5759 5759 5760 5762 5763 5763 5764 5765 5766 5766 5766 5767 5768 5768 5768 5768 5769 5769 5769 5770 5770 5770 5771 5771 5771 5771 5772 5772 5772 5772 5773
5732 5732 5731 5732 5733 5734 5735 5736 5737 5738 5739 5739 5740 5741 5742 5742 5742 5742 5742 5742 5743 5744 5745 5746 5746 5747 5747 5748 5750 5751 5752 5752 5752 5753 5753 5754 5755 5757 5758 5758 5759 5759 5760 5760 5761 5760 5760 5761 5760 5760 5760 5760 5759 5757 5756 5755 5756 5757 5759 5760 5760 5761 5762 5763 5763 5763 5764 5764 5764 5765 5765 5765 5766 5766 5766 5767 5767 5767 5768 5768 5768 5768 5769 5769 5769 5770
5729 5729 5730 5730 5730 5731 5732 5733 5735 5736 5737 5737 5738 5739 5739 5739 5739 5739 5739 5740 5741 5742 5743 5744 5744 5745 5745 5745 5746 5748 5749 5749 5749 5750 5750 5750 5751 5752 5753 5755 5756 5757 5758 5758 5758 5758 5758 5758 5758 5758 5757 5757 5756 5754 5753 5753 5753 5754 5755 5756 5757 5758 5759 5759 5759 5760 5760 5761 5761 5761 5762 5762 5762 5763 5763 5763 5764 5764 5765 5765 5765 5765 5765 5766 5766 5767
5726 5726 5727 5727 5728 5729 5730 5731 5732 5733 5733 5734 5735 5736 5736 5736 5736 5736 5737 5737 5738 5739 5740 5741 5742 5743 5743 5743 5743 5744 5745 5746 5746 5746 5747 5747 5747 5748 5750 5752 5754 5755 5756 5756 5756 5756 5755 5755 5755 5755 5755 5754 5753 5751 5750 5750 5751 5751 5752 5753 5754 5754 5755 5756 5756 5756 5757 5757 5758 5758 5759 5759 5759 5760 5760 5760 5761 5761 5762 5762 5762 5762 5762 5763 5763 5763
5723 5723 5724 5724 5725 5726 5727 5728 5728 5729 5730 5731 5732 5733 5733 5733 5733 5733 5734 5734 5735 5736 5736 5738 5739 5740 5742 5741 5740 5741 5741 5742 5742 5742 5743 5743 5744 5745 5747 5749 5751 5752 5753 5753 5753 5753 5753 5753 5752 5752 5752 5752 5751 5748 5747 5748 5749 5749 5750 5750 5750 5751 5752 5752 5753 5753 5753 5755 5755 5756 5756 5756 5756 5757 5757 5758 5758 5758 5758 5759 5759 5759 5759 5760 5760 5760
5721 5720 5721 5722 5723 5724 5725 5725 5725 5726 5727 5728 5728 5729 5729 5730 5730 5731 5731 5731 5732 5733 5733 5735 5735 5736 5738 5740 5739 5738 5738 5738 5737 5738 5739 5740 5740 5742 5744 5745 5747 5748 5749 5749 5750 5750 5750 5750 5749 5749 5749 5748 5748 5745 5744 5745 5746 5747 5747 5747 5747 5748 5748 5749 5749 5749 5750 5752 5752 5753 5753 5753 5753 5754 5754 5755 5755 5755 5756 5756 5756 5756 5757 5757 5757 5757
5719 5718 5719 5719 5720 5721 5722 5722 5723 5723 5724 5725 5725 5726 5726 5727 5727 5727 5728 5728 5728 5729 5730 5731 5732 5732 5734 5736 5736 5735 5735 5734 5734 5735 5736 5736 5736 5738 5739 5740 5742 5744 5745 5745 5746 5746 5746 5746 5746 5746 5745 5745 5744 5743 5742 5743 5743 5744 5744 5744 5744 5745 5745 5746 5746 5746 5747 5748 5749 5750 5750 5751 5751 5751 5752 5752 5753 5753 5753 5753 5753 5754 5754 5754 5754 5754
5717 5717 5717 5718 5718 5719 5719 5719 5720 5721 5721 5722 5722 5723 5723 5723 5724 5724 5724 5724 5725 5725 5727 5728 5728 5727 5728 5731 5733 5732 5732 5732 5732 5733 5733 5732 5733 5733 5734 5736 5737 5739 5740 5741 5741 5741 5741 5741 5741 5741 5741 5741 5741 5740 5739 5740 5740 5740 5741 5742 5742 5742 5743 5743 5743 5744 5745 5745 5746 5747 5747 5748 5748 5749 5749 5749 5750 5750 5750 5750 5751 5751 5751 5751 5751 5751
5715 5715 5715 5716 5716 5716 5716 5717 5717 5718 5718 5719 5719 5719 5720 5720 5720 5721 5721 5721 5721 5722 5724 5724 5724 5723 5723 5726 5729 5729 5729 5730 5730 5731 5730 5730 5729 5730 5730 5731 5733 5734 5735 5736 5736 5736 5736 5736 5737 5737 5738 5738 5738 5737 5737 5737 5737 5737 5738 5739 5740 5740 5740 5740 5741 5741 5742 5743 5743 5744 5744 5745 5745 5746 5746 5747 5747 5747 5747 5748 5748 5748 5749 5749 5749 5749
5713 5713 5713 5713 5714 5714 5714 5715 5715 5715 5716 5716 5716 5716 5717 5717 5718 5718 5718 5718 5718 5719 5720 5720 5719 5719 5719 5721 5723 5725 5726 5727 5727 5727 5726 5726 5726 5726 5727 5728 5729 5730 5731 5732 5731 5731 5732 5732 5733 5733 5734 5735 5735 5735 5735 5735 5735 5735 5736 5736 5737 5737 5738 5738 5738 5738 5739 5740 5740 5741 5741 5741 5742 5743 5743 5744 5744 5744 5745 5745 5745 5746 5746 5747 5747 5747
5711 5711 5711 5711 5711 5712 5712 5713 5713 5713 5714 5714 5714 5714 5715 5715 5715 5715 5715 5715 5716 5716 5716 5716 5716 5716 5716 5717 5719 5720 5722 5723 5723 5723 5722 5722 5722 5723 5723 5724 5724 5726 5727 5728 5727 5727 5728 5728 5729 5730 5731 5732 5733 5733 5733 5733 5733 5733 5733 5733 5734 5734 5735 5735 5735 5736 5736 5737 5737 5738 5738 5739 5739 5740 5740 5741 5741 5742 5742 5742 5743 5743 5743 5744 5744 5744
5709 5709 5709 5709 5709 5709 5710 5711 5711 5711 5711 5711 5712 5712 5712 5712 5712 5713 5713 5713 5713 5713 5713 5713 5713 5713 5714 5715 5715 5716 5718 5719 5719 5719 5719 5719 5719 5719 5720 5721 5721 5722 5723 5723 5723 5724 5725 5725 5727 5728 5729 5730 5731 5731 5731 5731 5731 5731 5731 5731 5731 5732 5732 5732 5733 5733 5733 5734 5734 5735 5735 5736 5736 5737 5737 5738 5738 5739 5739 5740 5740 5740 5740 5741 5741 5741
5707 5707 5707 5707 5707 5707 5708 5708 5708 5708 5708 5709 5709 5709 5709 5710 5710 5710 5710 5710 5710 5710 5710 5710 5710 5710 5712 5712 5712 5713 5714 5715 5716 5716 5716 5716 5716 5716 5717 5718 5718 5719 5720 5720 5720 5722 5723 5723 5724 5726 5727 5728 5728 5729 5729 5729 5729 5729 5729 5729 5729 5729 5730 5730 5730 5731 5731 5731 5732 5732 5733 5733 5734 5734 5735 5735 5735 5736 5736 5737 5737 5737 5737 5738 5738 5738
5705 5705 5705 5705 5705 5705 5706 5705 5705 5705 5706 5706 5706 5706 5707 5707 5707 5707 5707 5707 5707 5707 5707 5707 5707 5708 5709 5709 5709 5710 5710 5711 5712 5713 5713 5713 5713 5714 5714 5715 5716 5716 5717 5718 5719 5720 5721 5721 5722 5723 5724 5725 5725 5726 5726 5726 5726 5727 5727 5726 5726 5726 5727 5728 5728 5728 5729 5729 5729 5730 5730 5730 5731 5731 5732 5732 5732 5733 5733 5733 5734 5734 5734 5735 5735 5735
5702 5703 5703 5703 5703 5703 5703 5703 5703 5703 5703 5703 5703 5703 5704 5704 5704 5704 5703 5703 5703 5703 5703 5704 5704 5705 5705 5705 5706 5707 5707 5708 5709 5709 5710 5710 5711 5711 5711 5712 5713 5714 5715 5716 5716 5717 5718 5718 5719 5720 5721 5722 5722 5722 5723 5723 5723 5723 5724 5724 5724 5724 5724 5725 5726 5726 5726 5726 5727 5727 5727 5728 5728 5728 5729 5729 5730 5730 5730 5730 5731 5731 5731 5732 5732 5732
5698 5699 5700 5700 5700 5700 5700 5700 5700 5700 5700 5700 5700 5701 5701 5700 5700 5700 5700 5700 5699 5699 5699 5700 5701 5701 5702 5702 5703 5704 5704 5704 5705 5706 5707 5707 5708 5709 5709 5710 5710 5712 5713 5714 5714 5714 5715 5715 5716 5716 5717 5718 5719 5719 5719 5719 5720 5720 5721 5721 5722 5721 5721 5722 5722 5723 5723 5724 5724 5724 5725 5725 5725 5726 5726 5727 5727 5727 5727 5727 5727 5727 5728 5728 5729 5729
5694 5695 5696 5697 5697 5697 5697 5697 5697 5697 5697 5697 5697 5697 5697 5697 5697 5697 5697 5696 5696 5695 5695 5696 5697 5697 5698 5699 5700 5700 5700 5701 5702 5703 5704 5704 5705 5706 5706 5707 5708 5709 5710 5711 5712 5712 5712 5713 5713 5713 5714 5714 5715 5715 5715 5716 5716 5717 5718 5718 5719 5719 5719 5719 5719 5720 5720 5721 5721 5721 5722 5722 5722 5723 5723 5724 5724 5724 5724 5724 5724 5724 5725 5725 5726 5726
5690 5690 5691 5692 5693 5693 5693 5693 5694 5694 5693 5694 5694 5693 5693 5694 5694 5693 5693 5693 5693 5692 5691 5691 5692 5693 5695 5696 5696 5696 5697 5698 5699 5700 5700 5701 5701 5702 5703 5704 5705 5706 5707 5708 5709 5710 5710 5710 5711 5711 5711 5711 5711 5711 5712 5712 5713 5713 5714 5715 5715 5716 5716 5716 5716 5717 5717 5718 5718 5718 5718 5719 5719 5720 5720 5721 5721 5722 5722 5722 5722 5721 5722 5722 5722 5723
5686 5686 5686 5687 5688 5688 5688 5688 5689 5689 5689 5689 5689 5689 5689 5689 5689 5689 5689 5689 5689 5688 5687 5687 5688 5689 5691 5692 5692 5692 5693 5694 5695 5696 5697 5697 5697 5698 5699 5700 5701 5703 5704 5705 5706 5707 5707 5708 5708 5708 5708 5708 5708 5709 5709 5709 5709 5710 5711 5711 5711 5712 5712 5713 5713 5713 5714 5714 5715 5715 5715 5716 5716 5717 5718 5719 5719 5719 5719 5719 5719 5719 5719 5719 5719 5720
5682 5682 5682 5682 5683 5683 5683 5683 5683 5684 5684 5684 5685 5685 5685 5685 5685 5685 5684 5684 5684 5684 5683 5683 5683 5684 5686 5688 5689 5689 5689 5690 5691 5692 5692 5693 5694 5694 5695 5696 5697 5698 5699 5700 5701 5702 5703 5704 5704 5705 5705 5705 5705 5705 5705 5706 5706 5707 5707 5707 5708 5708 5708 5709 5709 5710 5710 5711 5711 5712 5713 5713 5714 5714 5715 5716 5716 5716 5716 5716 5716 5717 5717 5717 5717 5717
5677 5677 5677 5677 5678 5678 5678 5678 5678 5678 5679 5679 5679 5680 5680 5680 5680 5680 5679 5679 5680 5679 5679 5678 5678 5678 5681 5684 5685 5685 5685 5685 5686 5687 5688 5689 5689 5690 5690 5691 5692 5693 5694 5695 5696 5697 5698 5699 5699 5700 5701 5701 5701 5701 5701 5702 5702 5703 5703 5703 5704 5704 5705 5705 5706 5706 5707 5707 5708 5709 5709 5710 5710 5710 5711 5712 5713 5713 5713 5713 5713 5714 5714 5715 5715 5715
5673 5673 5672 5672 5672 5673 5673 5673 5673 5673 5674 5674 5674 5675 5675 5675 5675 5674 5674 5674 5674 5674 5674 5674 5672 5672 5676 5679 5680 5681 5681 5681 5681 5682 5683 5684 5684 5685 5685 5686 5687 5688 5689 5689 5691 5692 5693 5694 5694 5695 5695 5696 5697 5697 5697 5697 5698 5698 5699 5699 5699 5700 5701 5701 5701 5702 5703 5703 5704 5704 5706 5706 5706 5706 5706 5707 5708 5709 5709 5709 5710 5710 5711 5711 5712 5712
5669 5669 5668 5667 5667 5667 5667 5668 5668 5669 5669 5669 5669 5669 5669 5670 5670 5669 5669 5669 5668 5667 5669 5669 5667 5667 5670 5672 5674 5675 5676 5677 5676 5677 5677 5678 5679 5679 5680 5681 5682 5683 5683 5684 5685 5686 5687 5688 5689 5690 5690 5691 5691 5692 5693 5693 5693 5694 5694 5695 5695 5696 5696 5696 5697 5697 5698 5698 5699 5700 5701 5702 5702 5702 5702 5702 5703 5705 5705 5705 5705 5706 5707 5707 5708 5708
5664 5664 5663 5663 5662 5661 5662 5663 5663 5663 5663 5663 5664 5664 5664 5664 5664 5664 5664 5664 5663 5662 5664 5664 5663 5664 5664 5665 5666 5669 5670 5671 5671 5672 5672 5673 5673 5674 5675 5676 5676 5677 5678 5678 5678 5679 5680 5681 5682 5684 5684 5685 5685 5686 5687 5687 5688 5689 5689 5690 5690 5691 5691 5692 5692 5693 5693 5694 5694 5695 5695 5696 5697 5697 5697 5698 5699 5699 5699 5700 5701 5702 5702 5703 5703 5704
5659 5658 5658 5657 5656 5656 5656 5657 5658 5658 5658 5658 5658 5658 5659 5659 5659 5659 5659 5659 5659 5658 5658 5658 5659 5660 5660 5660 5660 5662 5663 5664 5664 5665 5666 5667 5667 5668 5669 5669 5670 5671 5671 5672 5672 5672 5673 5674 5675 5677 5678 5679 5679 5680 5681 5681 5682 5683 5684 5684 5685 5686 5686 5687 5687 5688 5688 5689 5689 5689 5690 5691 5692 5692 5693 5693 5694 5694 5694 5695 5696 5697 5697 5698 5699 5699
5653 5653 5652 5652 5651 5651 5650 5650 5651 5652 5652 5653 5653 5652 5653 5653 5653 5653 5653 5654 5655 5654 5653 5653 5655 5657 5656 5655 5655 5656 5656 5656 5657 5658 5659 5660 5661 5661 5662 5663 5664 5664 5664 5665 5666 5666 5667 5668 5669 5670 5671 5672 5673 5674 5675 5675 5676 5677 5678 5678 5679 5680 5681 5681 5682 5682 5683 5683 5683 5684 5685 5685 5686 5687 5688 5688 5688 5688 5689 5690 5691 5692 5692 5692 5693 5694
5647 5647 5647 5646 5646 5646 5645 5645 5645 5645 5646 5647 5647 5647 5647 5647 5648 5648 5648 5649 5649 5649 5649 5649 5650 5652 5652 5650 5650 5650 5649 5649 5650 5652 5652 5653 5654 5654 5655 5656 5657 5657 5658 5659 5659 5660 5661 5662 5663 5664 5665 5666 5667 5668 5669 5670 5670 5671 5671 5672 5673 5674 5674 5675 5675 5676 5676 5677 5677 5678 5679 5680 5680 5681 5682 5682 5683 5683 5684 5685 5686 5686 5685 5686 5687 5688
5641 5640 5640 5640 5640 5640 5640 5639 5639 5639 5639 5640 5641 5641 5641 5642 5642 5643 5643 5644 5644 5643 5644 5643 5643 5645 5646 5645 5644 5645 5644 5643 5643 5644 5645 5646 5647 5648 5649 5649 5650 5652 5652 5653 5654 5654 5655 5656 5656 5657 5658 5659 5660 5661 5662 5663 5664 5664 5665 5666 5666 5667 5668 5668 5669 5669 5669 5670 5671 5672 5673 5673 5674 5675 5675 5676 5677 5678 5678 5679 5679 5679 5679 5679 5680 5681
5635 5634 5634 5634 5633 5634 5635 5634 5633 5633 5633 5633 5634 5634 5635 5636 5637 5638 5638 5638 5637 5637 5637 5636 5635 5638 5640 5639 5638 5638 5637 5636 5636 5636 5637 5639 5640 5641 5642 5643 5644 5645 5646 5647 5647 5648 5649 5649 5650 5650 5651 5652 5653 5653 5654 5655 5656 5657 5658 5659 5659 5660 5661 5662 5662 5662 5663 5663 5664 5664 5665 5667 5668 5669 5669 5670 5671 5672 5672 5673 5673 5673 5673 5674 5674 5674
5629 5628 5628 5627 5626 5628 5629 5628 5627 5627 5626 5626 5626 5627 5629 5630 5630 5630 5631 5630 5630 5630 5631 5629 5629 5632 5634 5632 5631 5631 5630 5631 5631 5631 5631 5631 5632 5633 5634 5635 5637 5638 5639 5639 5640 5640 5641 5642 5642 5643 5643 5644 5645 5646 5647 5648 5648 5649 5650 5651 5652 5653 5654 5654 5655 5655 5656 5656 5656 5657 5658 5659 5660 5662 5662 5663 5664 5665 5666 5667 5667 5667 5667 5667 5667 5667
5623 5622 5622 5621 5620 5621 5623 5622 5621 5620 5619 5618 5620 5622 5623 5622 5622 5622 5623 5623 5624 5624 5623 5622 5623 5626 5626 5624 5624 5624 5625 5625 5625 5625 5625 5626 5626 5626 5627 5628 5629 5630 5631 5632 5632 5633 5633 5634 5635 5635 5636 5637 5638 5639 5639 5640 5641 5641 5642 5643 5643 5644 5645 5646 5647 5648 5648 5648 5649 5649 5650 5651 5652 5654 5655 5655 5656 5657 5658 5659 5660 5660 5660 5660 5660 5661
5617 5616 5616 5615 5614 5615 5615 5614 5613 5612 5612 5614 5615 5616 5615 5614 5614 5615 5615 5616 5616 5616 5616 5617 5618 5619 5619 5618 5618 5618 5619 5619 5618 5618 5618 5619 5619 5619 5620 5621 5622 5622 5623 5624 5624 5625 5626 5627 5628 5628 5629 5630 5631 5631 5632 5632 5633 5633 5634 5635 5635 5636 5636 5637 5638 5639 5640 5640 5640 5641 5641 5642 5644 5645 5647 5647 5648 5649 5650 5651 5652 5653 5653 5653 5653 5654
5611 5611 5610 5609 5608 5608 5609 5607 5605 5605 5606 5608 5608 5608 5608 5609 5609 5608 5608 5608 5609 5609 5610 5610 5611 5611 5612 5612 5612 5612 5612 5612 5611 5611 5611 5611 5611 5612 5613 5614 5615 5615 5615 5616 5617 5617 5618 5620 5621 5621 5622 5622 5623 5623 5623 5624 5625 5626 5626 5627 5627 5628 5628 5629 5630 5630 5631 5631 5631 5632 5633 5634 5636 5637 5638 5639 5640 5641 5642 5643 5644 5644 5645 5645 5645 5646
5604 5604 5603 5603 5602 5602 5602 5601 5599 5599 5601 5601 5600 5601 5602 5602 5602 5602 5601 5601 5602 5602 5602 5603 5603 5604 5604 5604 5605 5605 5605 5605 5604 5603 5604 5604 5604 5605 5606 5606 5607 5608 5608 5609 5609 5610 5610 5612 5613 5613 5614 5614 5615 5615 5615 5616 5617 5618 5619 5619 5620 5620 5620 5621 5622 5622 5622 5622 5623 5623 5625 5626 5628 5629 5630 5631 5632 5632 5633 5634 5635 5635 5636 5637 5637 5638
5597 5597 5597 5596 5596 5595 5595 5595 5594 5593 5594 5594 5594 5595 5595 5595 5595 5595 5594 5595 5595 5595 5596 5596 5596 5596 5597 5597 5597 5598 5599 5598 5596 5595 5596 5597 5598 5598 5599 5599 5599 5600 5601 5601 5602 5602 5603 5604 5604 5605 5606 5606 5606 5606 5607 5608 5609 5610 5611 5612 5612 5612 5612 5613 5613 5613 5613 5614 5615 5616 5617 5618 5619 5621 5622 5623 5624 5624 5625 5625 5626 5627 5628 5628 5629 5630
5590 5590 5590 5589 5589 5589 5589 5588 5588 5588 5588 5588 5588 5588 5588 5588 5588 5588 5587 5587 5588 5588 5588 5589 5589 5589 5589 5590 5590 5591 5592 5592 5589 5588 5590 5591 5591 5591 5591 5592 5592 5593 5593 5594 5594 5595 5595 5595 5596 5597 5598 5598 5598 5598 5599 5600 5601 5603 5604 5604 5604 5604 5605 5605 5604 5603 5604 5606 5608 5608 5609 5610 5611 5612 5613 5614 5615 5616 5616 5617 5617 5618 5619 5620 5621 5621
5583 5583 5583 5582 5582 5582 5582 5582 5582 5582 5581 5582 5582 5582 5583 5582 5582 5582 5581 5580 5581 5581 5581 5581 5582 5582 5583 5583 5584 5584 5585 5584 5583 5582 5583 5584 5584 5584 5585 5585 5585 5585 5586 5586 5586 5587 5587 5587 5588 5589 5590 5590 5591 5591 5591 5592 5593 5595 5596 5596 5596 5597 5597 5596 5595 5595 5597 5599 5600 5600 5601 5602 5603 5604 5605 5605 5606 5607 5607 5608 5609 5610 5611 5612 5613 5613
5577 5576 5576 5576 5575 5575 5575 5575 5576 5576 5575 5576 5576 5576 5576 5576 5575 5575 5573 5573 5574 5575 5574 5574 5574 5575 5576 5577 5577 5577 5577 5577 5576 5576 5577 5578 5578 5577 5578 5578 5578 5578 5579 5579 5579 5579 5580 5580 5581 5582 5582 5583 5583 5583 5584 5584 5586 5587 5588 5588 5588 5589 5589 5587 5587 5588 5589 5590 5591 5592 5593 5594 5594 5596 5596 5597 5597 5598 5599 5600 5601 5602 5603 5604 5605 5606
5571 5570 5570 5570 5569 5569 5568 5568 5569 5569 5569 5569 5569 5569 5569 5569 5568 5568 5567 5567 5568 5568 5567 5567 5567 5568 5568 5569 5569 5569 5569 5569 5569 5569 5570 5571 5571 5571 5571 5571 5572 5572 5572 5572 5572 5572 5573 5573 5574 5574 5575 5575 5575 5575 5576 5576 5578 5579 5579 5580 5581 5581 5580 5579 5580 5581 5581 5582 5583 5584 5584 5585 5586 5587 5588 5588 5589 5590 5591 5592 5592 5593 5595 5596 5597 5598
5566 5565 5565 5564 5563 5563 5562 5562 5563 5563 5563 5563 5563 5562 5562 5562 5561 5561 5561 5561 5561 5561 5561 5560 5560 5561 5561 5562 5562 5562 5562 5562 5562 5563 5563 5564 5565 5565 5565 5565 5565 5565 5565 5565 5565 5565 5566 5567 5567 5567 5567 5567 5567 5568 5568 5568 5569 5570 5571 5572 5573 5572 5571 5572 5573 5573 5573 5574 5575 5576 5576 5577 5577 5579 5580 5580 5581 5582 5582 5584 5585 5585 5587 5588 5589 5590
5560 5560 5559 5559 5558 5558 5558 5557 5556 5556 5556 5556 5555 5554 5554 5554 5554 5554 5555 5555 5554 5555 5554 5554 5554 5554 5554 5555 5555 5556 5556 5556 5556 5556 5556 5557 5558 5558 5558 5558 5558 5558 5558 5558 5559 5558 5559 5560 5560 5560 5560 5560 5560 5560 5560 5560 5561 5562 5563 5564 5564 5563 5564 5565 5565 5565 5566 5567 5567 5567 5567 5568 5569 5570 5571 5571 5572 5573 5574 5575 5577 5578 5579 5580 5581 5582
5554 5554 5554 5554 5554 5553 5553 5552 5551 5550 5550 5549 5548 5547 5547 5548 5547 5548 5548 5548 5547 5547 5547 5547 5547 5547 5547 5548 5549 5549 5549 5549 5549 5549 5549 5550 5550 5551 5551 5551 5551 5551 5551 5552 5552 5552 5551 5552 5553 5553 5553 5553 5552 5552 5552 5552 5553 5554 5555 5555 5555 5555 5556 5556 5556 5557 5558 5558 5558 5558 5559 5560 5560 5561 5562 5562 5563 5564 5565 5567 5568 5569 5571 5572 5573 5575
5548 5547 5548 5548 5548 5548 5548 5547 5546 5545 5544 5542 5541 5541 5541 5541 5541 5541 5542 5541 5541 5540 5540 5540 5541 5541 5540 5540 5541 5541 5541 5541 5542 5542 5542 5542 5543 5543 5543 5543 5544 5544 5544 5545 5545 5545 5544 5545 5545 5545 5545 5545 5545 5544 5544 5544 5545 5546 5547 5546 5546 5547 5547 5547 5547 5548 5549 5549 5549 5549 5550 5550 5551 5552 5552 5553 5554 5555 5556 5558 5559 5561 5562 5564 5566 5567
5542 5541 5541 5542 5542 5541 5542 5542 5541 5539 5538 5537 5536 5535 5535 5535 5535 5534 5534 5534 5534 5533 5534 5534 5534 5534 5533 5532 5532 5533 5533 5532 5533 5533 5534 5534 5535 5535 5535 5536 5536 5536 5536 5537 5537 5537 5537 5537 5538 5538 5538 5538 5537 5536 5536 5537 5537 5538 5538 5538 5538 5538 5538 5538 5538 5539 5540 5540 5539 5540 5540 5540 5541 5542 5543 5543 5545 5546 5548 5550 5552 5554 5556 5557 5559 5561
5535 5535 5535 5535 5534 5534 5535 5535 5535 5534 5533 5532 5531 5530 5529 5528 5528 5527 5527 5526 5526 5526 5526 5526 5526 5526 5525 5525 5524 5524 5524 5524 5524 5524 5525 5525 5525 5526 5527 5527 5528 5528 5528 5528 5528 5528 5528 5529 5529 5530 5530 5530 5529 5528 5528 5529 5529 5529 5529 5529 5529 5529 5528 5529 5529 5530 5530 5530 5530 5531 5532 5532 5533 5534 5535 5536 5538 5540 5542 5544 5546 5548 5551 5552 5554 5556
5529 5530 5529 5528 5527 5527 5528 5529 5528 5527 5527 5525 5524 5523 5521 5521 5520 5520 5519 5518 5518 5518 5518 5518 5517 5517 5517 5516 5516 5516 5517 5516 5516 5515 5516 5516 5516 5516 5518 5518 5518 5518 5519 5519 5519 5519 5519 5520 5521 5521 5521 5521 5520 5520 5520 5521 5521 5520 5520 5520 5520 5520 5520 5521 5522 5522 5522 5522 5523 5524 5525 5526 5528 5529 5530 5531 5534 5536 5538 5540 5542 5544 5546 5548 5550 5552
5524 5524 5522 5522 5522 5522 5522 5522 5520 5519 5519 5518 5515 5514 5513 5513 5513 5512 5511 5510 5510 5510 5510 5509 5509 5509 5508 5508 5508 5507 5508 5508 5507 5506 5507 5507 5508 5508 5509 5509 5509 5509 5510 5510 5510 5510 5511 5511 5512 5512 5512 5512 5512 5512 5512 5513 5512 5511 5511 5512 5513 5513 5514 5515 5515 5515 5515 5516 5517 5518 5520 5521 5523 5525 5526 5528 5530 5532 5534 5536 5538 5540 5542 5544 5546 5548
5518 5517 5515 5515 5515 5516 5516 5514 5512 5511 5511 5511 5508 5506 5505 5504 5504 5504 5503 5502 5502 5502 5500 5500 5501 5500 5499 5499 5498 5498 5498 5499 5499 5498 5498 5499 5500 5500 5500 5501 5501 5501 5501 5501 5501 5502 5502 5503 5504 5504 5504 5504 5504 5505 5506 5506 5505 5505 5506 5508 5508 5508 5509 5510 5510 5510 5510 5511 5512 5513 5515 5517 5519 5521 5523 5524 5526 5528 5530 5532 5534 5537 5539 5541 5543 5545
5512 5510 5509 5508 5507 5507 5507 5506 5504 5502 5503 5503 5501 5499 5497 5496 5495 5495 5494 5494 5494 5493 5492 5491 5492 5492 5492 5491 5490 5488 5489 5490 5491 5490 5491 5491 5491 5491 5492 5492 5493 5494 5494 5493 5494 5495 5495 5495 5496 5497 5498 5498 5499 5500 5501 5502 5502 5502 5503 5504 5505 5505 5505 5506 5506 5505 5505 5506 5508 5509 5511 5513 5516 5517 5519 5521 5523 5525 5527 5530 5532 5535 5537 5539 5541 5542